Location: Laura�t
(43.9341°N, 0.2497°E)
Time: 23:30:29
(UTC+00:00)

CSL-04 DEB - Pass Details

Date: 03 March 2021
Orbit: 546 x 626 km, 98.8° (Epoch: 17 April)

Event Time Altitude Azimuth Distance (km) Brightness Sun altitude
Rises 18:13:43 0° 14° (NNE) 2,731 7.7 -5.0°
Reaches altitude 10° 18:15:50 10° 15° (NNE) 1,838 6.8 -5.4°
Maximum altitude 18:19:48 87° 104° (ESE) 565 4.4 -6.1°
Drops below altitude 10° 18:23:49 10° 194° (SSW) 1,858 7.2 -6.9°
Sets 18:25:58 0° 195° (SSW) 2,762 8.1 -7.2°
